| time (UTC) | temp F | wind direction | speed MPH | gust MPH | rain 1hr in | rain 24hr in | rain mn in | humidity % | barometer mb |
| 20260903040109 | 57 | 19 | 0.0 | 0.0 | 0.00 | 0.00 | 0.00 | 1 | 1006.1 |
| 20260903034606 | 58 | 46 | 0.0 | 0.0 | 0.00 | 0.00 | 0.00 | 1 | 1006.2 |
| 20260903033052 | 57 | 340 | 0.0 | 3.0 | 0.00 | 0.00 | 0.00 | 1 | 1006.2 |
| 20260903031547 | 57 | 299 | 0.0 | 3.0 | 0.00 | 0.00 | 0.00 | 1 | 1006.3 |
| 20260903030043 | 55 | 92 | 0.0 | 0.0 | 0.00 | 0.00 | 0.00 | 1 | 1006.2 |
| 20260903024541 | 54 | 303 | 0.0 | 0.0 | 0.00 | 0.00 | 0.00 | 1 | 1006.3 |
| 20260903023040 | 51 | 281 | 0.0 | 0.0 | 0.00 | 0.00 | 0.00 | 1 | 1006.4 |
| 20260903021530 | 51 | 281 | 0.0 | 0.0 | 0.00 | 0.00 | 0.00 | 1 | 1006.5 |
| 20260903020025 | 50 | 281 | 0.0 | 0.0 | 0.00 | 0.00 | 0.00 | 1 | 1006.6 |
| 20260903014523 | 50 | 281 | 0.0 | 0.0 | 0.00 | 0.00 | 0.00 | 1 | 1006.7 |
| 20260903013019 | 50 | 281 | 0.0 | 0.0 | 0.00 | 0.00 | 0.00 | 1 | 1006.8 |
| 20260903011521 | 50 | 281 | 0.0 | 0.0 | 0.00 | 0.00 | 0.00 | 1 | 1006.8 |
| 20260903010009 | 50 | 281 | 0.0 | 0.0 | 0.00 | 0.00 | 0.00 | 1 | 1006.9 |
| 20260903004504 | 50 | 281 | 0.0 | 0.0 | 0.00 | 0.00 | 0.00 | 1 | 1007.0 |
| 20260903003114 | 51 | 281 | 0.0 | 0.0 | 0.00 | 0.00 | 0.00 | 1 | 1007.0 |
| 20260903001556 | 51 | 281 | 0.0 | 0.0 | 0.00 | 0.00 | 0.00 | 1 | 1007.1 |
| 20260903000100 | 52 | 281 | 0.0 | 0.0 | 0.00 | 0.00 | 0.00 | 1 | 1007.3 |
| 20260902234548 | 52 | 281 | 0.0 | 0.0 | 0.00 | 0.00 | 0.00 | 1 | 1007.3 |
| 20260902233044 | 53 | 281 | 0.0 | 0.0 | 0.00 | 0.00 | 0.00 | 1 | 1007.4 |
| 20260902231544 | 53 | 281 | 0.0 | 0.0 | 0.00 | 0.00 | 0.00 | 1 | 1007.3 |
| 20260902230034 | 54 | 281 | 0.0 | 0.0 | 0.00 | 0.00 | 0.00 | 1 | 1007.4 |
| 20260902224531 | 54 | 281 | 0.0 | 0.0 | 0.00 | 0.00 | 0.00 | 1 | 1007.3 |
| 20260902223025 | 54 | 281 | 0.0 | 0.0 | 0.00 | 0.00 | 0.00 | 1 | 1007.5 |
| 20260902221521 | 55 | 281 | 0.0 | 0.0 | 0.00 | 0.00 | 0.00 | 1 | 1007.5 |
| 20260902220016 | 55 | 277 | 0.0 | 0.0 | 0.00 | 0.00 | 0.00 | 1 | 1007.6 |
| 20260902214518 | 55 | 276 | 0.0 | 0.0 | 0.00 | 0.00 | 0.00 | 1 | 1007.7 |
| 20260902213007 | 54 | 275 | 0.0 | 0.0 | 0.00 | 0.00 | 0.00 | 1 | 1007.7 |
| 20260902211507 | 54 | 273 | 0.0 | 0.0 | 0.00 | 0.00 | 0.00 | 1 | 1007.7 |
| 20260902210059 | 54 | 273 | 0.0 | 0.0 | 0.00 | 0.00 | 0.00 | 1 | 1007.6 |
| 20260902204607 | 54 | 273 | 0.0 | 0.0 | 0.00 | 0.00 | 0.00 | 1 | 1007.7 |
| 20260902203058 | 54 | 273 | 0.0 | 0.0 | 0.00 | 0.00 | 0.00 | 1 | 1007.7 |
| 20260902201616 | 54 | 273 | 0.0 | 0.0 | 0.00 | 0.00 | 0.00 | 1 | 1007.6 |
| 20260902200051 | 55 | 273 | 0.0 | 0.0 | 0.00 | 0.00 | 0.00 | 1 | 1007.7 |
| 20260902194550 | 55 | 273 | 0.0 | 0.0 | 0.00 | 0.00 | 0.00 | 1 | 1007.7 |
| 20260902193042 | 55 | 273 | 0.0 | 0.0 | 0.00 | 0.00 | 0.00 | 1 | 1007.6 |
| 20260902191538 | 55 | 273 | 0.0 | 0.0 | 0.00 | 0.00 | 0.00 | 1 | 1007.7 |
| 20260902190033 | 55 | 273 | 0.0 | 0.0 | 0.00 | 0.00 | 0.00 | 1 | 1007.8 |
| 20260902184529 | 56 | 273 | 0.0 | 0.0 | 0.00 | 0.00 | 0.00 | 1 | 1007.7 |
| 20260902183025 | 56 | 273 | 0.0 | 0.0 | 0.00 | 0.00 | 0.00 | 1 | 1007.7 |
| 20260902181523 | 56 | 273 | 0.0 | 0.0 | 0.00 | 0.00 | 0.00 | 1 | 1007.8 |
| 20260902180122 | 57 | 273 | 0.0 | 0.0 | 0.00 | 0.00 | 0.00 | 1 | 1007.8 |
| 20260902174549 | 57 | 273 | 0.0 | 0.0 | 0.00 | 0.00 | 0.00 | 1 | 1007.7 |
| 20260902173039 | 58 | 273 | 0.0 | 0.0 | 0.00 | 0.00 | 0.00 | 1 | 1007.7 |
| 20260902171540 | 59 | 273 | 0.0 | 0.0 | 0.00 | 0.00 | 0.00 | 1 | 1007.6 |
| 20260902170035 | 59 | 273 | 0.0 | 0.0 | 0.00 | 0.00 | 0.00 | 1 | 1007.5 |
| 20260902164538 | 60 | 273 | 0.0 | 0.0 | 0.00 | 0.00 | 0.00 | 1 | 1007.5 |
| 20260902163021 | 61 | 273 | 0.0 | 0.0 | 0.00 | 0.00 | 0.00 | 1 | 1007.5 |
| 20260902161524 | 61 | 273 | 0.0 | 0.0 | 0.00 | 0.00 | 0.00 | 1 | 1007.5 |
| 20260902160013 | 62 | 273 | 0.0 | 0.0 | 0.00 | 0.00 | 0.00 | 1 | 1007.5 |
| 20260902154514 | 62 | 261 | 0.0 | 0.0 | 0.00 | 0.00 | 0.00 | 10 | 1007.6 |
| 20260902153003 | 62 | 265 | 0.0 | 0.0 | 0.00 | 0.00 | 0.00 | 13 | 1007.6 |
| 20260902151601 | 63 | 116 | 0.0 | 0.0 | 0.00 | 0.00 | 0.00 | 30 | 1007.6 |
| 20260902150055 | 64 | 269 | 0.0 | 1.0 | 0.00 | 0.00 | 0.00 | 35 | 1007.7 |
| 20260902144556 | 64 | 89 | 0.0 | 1.0 | 0.00 | 0.00 | 0.00 | 41 | 1007.6 |
| 20260902143046 | 64 | 255 | 0.0 | 3.0 | 0.00 | 0.00 | 0.00 | 57 | 1007.6 |
| 20260902141541 | 64 | 277 | 0.0 | 6.0 | 0.00 | 0.00 | 0.00 | 59 | 1007.6 |
| 20260902140038 | 64 | 271 | 0.0 | 1.0 | 0.00 | 0.00 | 0.00 | 58 | 1007.6 |
| 20260902134533 | 65 | 311 | 0.0 | 7.0 | 0.00 | 0.00 | 0.00 | 59 | 1007.7 |
| 20260902133042 | 65 | 232 | 0.0 | 2.0 | 0.00 | 0.00 | 0.00 | 57 | 1007.6 |
| 20260902131524 | 64 | 255 | 0.0 | 1.0 | 0.00 | 0.00 | 0.00 | 58 | 1007.6 |
| 20260902130026 | 64 | 249 | 0.0 | 0.0 | 0.00 | 0.00 | 0.00 | 57 | 1007.6 |
| 20260902124514 | 63 | 247 | 0.0 | 2.0 | 0.00 | 0.00 | 0.00 | 53 | 1007.6 |
| 20260902123011 | 62 | 259 | 0.0 | 0.0 | 0.00 | 0.00 | 0.00 | 46 | 1007.6 |
| 20260902121507 | 62 | 238 | 0.0 | 1.0 | 0.00 | 0.00 | 0.00 | 50 | 1007.7 |
| 20260902120003 | 62 | 345 | 0.0 | 0.0 | 0.00 | 0.00 | 0.00 | 47 | 1007.7 |
| 20260902114558 | 62 | 258 | 0.0 | 2.0 | 0.00 | 0.00 | 0.00 | 50 | 1007.8 |
| 20260902113108 | 62 | 236 | 0.0 | 2.0 | 0.00 | 0.00 | 0.00 | 44 | 1007.8 |
| 20260902111549 | 62 | 283 | 0.0 | 0.0 | 0.00 | 0.00 | 0.00 | 39 | 1007.8 |
| 20260902110045 | 62 | 112 | 0.0 | 0.0 | 0.00 | 0.00 | 0.00 | 42 | 1007.9 |
| 20260902104559 | 62 | 292 | 0.0 | 1.0 | 0.00 | 0.00 | 0.00 | 36 | 1007.8 |
| 20260902103036 | 62 | 210 | 0.0 | 0.0 | 0.00 | 0.00 | 0.00 | 29 | 1007.9 |
| 20260902101537 | 60 | 256 | 0.0 | 3.0 | 0.00 | 0.00 | 0.00 | 22 | 1007.9 |
| 20260902100026 | 60 | 210 | 0.0 | 1.0 | 0.00 | 0.00 | 0.00 | 8 | 1007.8 |
| 20260902094522 | 59 | 230 | 0.0 | 4.0 | 0.00 | 0.00 | 0.00 | 1 | 1008.0 |
| 20260902093023 | 59 | 250 | 0.0 | 1.0 | 0.00 | 0.00 | 0.00 | 1 | 1007.9 |
| 20260902091513 | 58 | 250 | 0.0 | 0.0 | 0.00 | 0.00 | 0.00 | 1 | 1007.9 |
| 20260902090009 | 58 | 266 | 0.0 | 3.0 | 0.00 | 0.00 | 0.00 | 1 | 1007.9 |
| 20260902084504 | 57 | 240 | 0.0 | 7.0 | 0.00 | 0.00 | 0.00 | 1 | 1007.9 |
| 20260902083116 | 56 | 5 | 0.0 | 0.0 | 0.00 | 0.00 | 0.00 | 1 | 1008.0 |
| 20260902081556 | 56 | 303 | 0.0 | 0.0 | 0.00 | 0.00 | 0.00 | 1 | 1008.0 |
| 20260902080055 | 55 | 355 | 0.0 | 0.0 | 0.00 | 0.00 | 0.00 | 1 | 1007.9 |
| 20260902074547 | 55 | 38 | 0.0 | 0.0 | 0.00 | 0.00 | 0.00 | 1 | 1007.8 |
| 20260902073042 | 55 | 244 | 0.0 | 0.0 | 0.00 | 0.00 | 0.00 | 1 | 1007.8 |
| 20260902071538 | 55 | 239 | 0.0 | 0.0 | 0.00 | 0.00 | 0.00 | 1 | 1007.7 |
| 20260902070039 | 55 | 241 | 0.0 | 1.0 | 0.00 | 0.00 | 0.00 | 1 | 1007.6 |
| 20260902064533 | 55 | 333 | 0.0 | 1.0 | 0.00 | 0.00 | 0.00 | 1 | 1007.4 |
| 20260902063027 | 55 | 281 | 0.0 | 0.0 | 0.00 | 0.00 | 0.00 | 1 | 1007.3 |
| 20260902061535 | 55 | 265 | 0.0 | 0.0 | 0.00 | 0.00 | 0.00 | 1 | 1007.3 |
| 20260902060017 | 55 | 266 | 0.0 | 0.0 | 0.00 | 0.00 | 0.00 | 1 | 1007.2 |
| 20260902054511 | 55 | 286 | 0.0 | 0.0 | 0.00 | 0.00 | 0.00 | 1 | 1007.2 |
| 20260902053008 | 54 | 286 | 0.0 | 0.0 | 0.00 | 0.00 | 0.00 | 1 | 1007.1 |
| 20260902051503 | 54 | 286 | 0.0 | 0.0 | 0.00 | 0.00 | 0.00 | 1 | 1007.0 |
| 20260902050108 | 53 | 286 | 0.0 | 0.0 | 0.00 | 0.00 | 0.00 | 1 | 1007.0 |
| 20260902044555 | 53 | 286 | 0.0 | 0.0 | 0.00 | 0.00 | 0.00 | 1 | 1007.0 |
| 20260902043102 | 53 | 286 | 0.0 | 0.0 | 0.00 | 0.00 | 0.00 | 1 | 1007.0 |
| 20260902041546 | 53 | 286 | 0.0 | 0.0 | 0.00 | 0.00 | 0.00 | 1 | 1006.9 |